This is the latest recevied weather packets stored in our database for station/object SP1BMW-13. If no packets are shown the sender has not sent any weather packets the latest 10 day(s).
| Time | Temp. | Humidity | Pressure | Rain* | Wind** | Luminosity | Snow |
|---|---|---|---|---|---|---|---|
| 1787983101 | 18.33° C | 77% | 1009.1 hPa | 0 mm | 0.89 m/s, 310° | 62 W/m² | - |
| 1787983040 | 18.33° C | 77% | 1009.2 hPa | 0 mm | 0.45 m/s, 96° | 65 W/m² | - |
| 1787982981 | 18.33° C | 78% | 1009 hPa | 0 mm | 0.45 m/s, 237° | 68 W/m² | - |
| 1787982921 | 18.33° C | 78% | 1008.9 hPa | 0 mm | 0.45 m/s, 191° | 71 W/m² | - |
| 1787982861 | 18.33° C | 78% | 1009.1 hPa | 0 mm | 0 m/s | 73 W/m² | - |
| 1787982801 | 18.33° C | 77% | 1008.8 hPa | 0 mm | 0.45 m/s, 326° | 74 W/m² | - |
| 1787982741 | 18.33° C | 78% | 1008.9 hPa | 0 mm | 0 m/s | 76 W/m² | - |
| 1787982680 | 18.33° C | 78% | 1008.9 hPa | 0 mm | 0 m/s | 77 W/m² | - |
| 1787982620 | 18.33° C | 78% | 1009 hPa | 0 mm | 0 m/s | 77 W/m² | - |
| 1787982560 | 18.33° C | 78% | 1009.1 hPa | 0 mm | 0.45 m/s, 124° | 77 W/m² | - |
| 1787982500 | 18.33° C | 79% | 1008.8 hPa | 0 mm | 0 m/s | 76 W/m² | - |
| 1787982440 | 18.33° C | 78% | 1008.9 hPa | 0 mm | 0 m/s | 76 W/m² | - |
| 1787982380 | 18.33° C | 79% | 1008.8 hPa | 0 mm | 0.45 m/s, 339° | 76 W/m² | - |
| 1787982320 | 18.33° C | 79% | 1008.9 hPa | 0 mm | 0 m/s | 77 W/m² | - |
| 1787982260 | 18.33° C | 79% | 1009.1 hPa | 0 mm | 0 m/s | 78 W/m² | - |
| 1787982200 | 18.33° C | 78% | 1008.9 hPa | 0 mm | 0.45 m/s, 237° | 79 W/m² | - |
| 1787982140 | 18.33° C | 79% | 1008.9 hPa | 0 mm | 0 m/s | 80 W/m² | - |
| 1787982080 | 18.33° C | 79% | 1008.8 hPa | 0 mm | 0 m/s | 80 W/m² | - |
| 1787982020 | 18.33° C | 79% | 1008.8 hPa | 0 mm | 0 m/s | 79 W/m² | - |
| 1787981960 | 18.33° C | 80% | 1009.1 hPa | 0 mm | 0 m/s | 78 W/m² | - |
| 1787981900 | 18.33° C | 79% | 1009.2 hPa | 0 mm | 0 m/s | 77 W/m² | - |
| 1787981840 | 18.33° C | 79% | 1009 hPa | 0 mm | 0.45 m/s, 251° | 76 W/m² | - |
| 1787981780 | 18.33° C | 80% | 1008.9 hPa | 0 mm | 0 m/s | 74 W/m² | - |
| 1787981720 | 18.33° C | 80% | 1009 hPa | 0 mm | 0 m/s | 71 W/m² | - |
| 1787981660 | 18.33° C | 79% | 1009 hPa | 0 mm | 0 m/s | 69 W/m² | - |
* Rain latest hour (hover to see other rain measurements)
** Current wind speed in m/s (hover to see current wind gust speed)